User: anonymous   Login
Location: Home
(42.5358°N, 72.7383°W)
Time: 14:09:11
(UTC-05:00)
Language:

AIST 2D - Orbit

View from above orbital plane
View from above orbital plane
View from above satellite
View from above satellite

Ground track
Ground track

The orbit data is extracted from the following two-line orbital elements,

1 41465U 16026B   22019.22500515  .00008610  00000-0  23181-3 0  9992
2 41465  97.0785 260.7425 0009464 324.4396 149.8420 15.38036608320573
Epoch (UTC): 19 January 2022 05:24:00
Eccentricity: 0.0009464
inclination: 97.0785°
perigee height: 445 km
apogee height: 458 km
right ascension of ascending node: 260.7425°
argument of perigee: 324.4396°
revolutions per day: 15.38036608
mean anomaly at epoch: 149.8420°
orbit number at epoch: 32057

The dashed part of the orbit path shows where the satellite is in the earth's shadow,  

DLR